Terminal Aerodrome Forecast
Issued by NWS

Home | Current Version | Previous Version | Graphics & Text | Print | Product List | Glossary On
Versions: 1 2 3 4 5 6 7 8 9 10 11 12 13 14 15 16 17 18 19 20 21 22
349
FTUS43 KMPX 271120
TAFRNH
TAF
KRNH 271120Z 2712/2812 07010KT P6SM BKN250
     FM271500 08014G20KT P6SM SCT050 BKN150
     FM280200 08017G25KT 6SM -RA BR BKN050 OVC100
     FM280400 06012KT 5SM -RA OVC030=

USA.gov is the U.S. government's official web portal to all federal, state and local government web resources and services.